Location: Battery Park City
(40.7115°N, 74.0163°W)
Time: 13:56:43
(UTC+00:00)

SMAP - Pass Details

Date: 08 December 2019
Orbit: 681 x 684 km, 98.1° (Epoch: 29 January)

Event Time Altitude Azimuth Distance (km) Brightness Sun altitude
Rises 22:30:06 0° 171° (S) 3,031 6.5 -11.4°
Reaches altitude 10° 22:32:20 10° 173° (S) 2,120 5.8 -11.8°
Maximum altitude 22:36:58 73° 258° (WSW) 719 3.3 -12.6°
Drops below altitude 10° 22:41:38 10° 343° (NNW) 2,136 5.6 -13.5°
Sets 22:43:54 0° 346° (NNW) 3,056 6.4 -13.9°
